Location: Saint Louis
(38.6272°N, 90.1978°W)
Time: 18:26:59
(UTC-05:00)

HST - Visible Passes

Search period start: 01 September 2014 00:00
Search period end: 11 September 2014 00:00
Orbit: 547 x 551 km, 28.5° (Epoch: 31 August)

Date Brightness Start Highest point End Pass type
(mag) Time Alt. Az. Time Alt. Az. Time Alt. Az.
05 Sep 3.0 20:27:19 10° SSE 20:27:40 10° SSE 20:28:01 10° SSE visible
06 Sep 2.9 20:18:49 10° S 20:20:33 12° SSE 20:21:42 11° SSE visible
07 Sep 2.8 20:11:09 10° SSW 20:13:28 15° SSE 20:15:16 12° SE visible
08 Sep 2.7 20:03:43 10° SSW 20:06:22 16° S 20:08:45 11° SE visible
08 Sep 3.5 21:44:06 10° SW 21:44:19 11° SW 21:44:19 11° SW visible
09 Sep 2.6 19:56:24 10° SW 19:59:17 18° S 20:02:09 10° SE visible
09 Sep 3.3 21:37:06 10° SW 21:37:44 13° SW 21:37:44 13° SW visible
10 Sep 2.6 19:49:11 10° SW 19:52:12 19° S 19:55:12 10° SE visible
10 Sep 3.2 21:30:09 10° SW 21:31:07 14° SW 21:31:07 14° SW visible
